"Time","409219","409219","409219","409219","409219"
"and",100.00,201.00,2000.00,3000.00,3500.00
"Date","Water Level (m)","Volume (GL)","Rainfall (mm)","Cond @25 degC(uS/cm)","Water Temp (Deg C)"
"","Mean","Mean","Total","Mean","Mean"
09:00:00 01/07/1987,,24.461,,,
09:00:00 02/07/1987,84.639,26.189,,,
09:00:00 03/07/1987,84.774,27.253,,,
09:00:00 04/07/1987,84.666,26.463,,,
09:00:00 05/07/1987,84.509,25.223,,,
09:00:00 06/07/1987,84.269,23.515,,,
09:00:00 07/07/1987,83.991,21.674,,,
09:00:00 08/07/1987,83.697,19.766,,,
09:00:00 09/07/1987,83.443,18.163,,,
09:00:00 10/07/1987,83.29,17.231,,,
09:00:00 11/07/1987,83.102,15.948,,,
09:00:00 12/07/1987,83.003,15.244,,,
09:00:00 13/07/1987,82.955,14.933,,,
09:00:00 14/07/1987,82.804,,,,
09:00:00 15/07/1987,83.004,16.591,,,
09:00:00 16/07/1987,83.211,16.759,,,
09:00:00 17/07/1987,83.228,16.865,,,
09:00:00 18/07/1987,83.541,18.811,,,
09:00:00 19/07/1987,83.727,19.969,,,
09:00:00 20/07/1987,83.696,19.766,,,
09:00:00 21/07/1987,83.725,19.952,,,
09:00:00 22/07/1987,83.875,20.922,,,
09:00:00 23/07/1987,84.112,22.473,,,
09:00:00 24/07/1987,84.36,24.127,,,
09:00:00 25/07/1987,84.568,25.694,,,
09:00:00 26/07/1987,84.727,26.907,,,
09:00:00 27/07/1987,84.804,27.463,,,
09:00:00 28/07/1987,84.795,27.396,,,
09:00:00 29/07/1987,84.73,26.947,,,
09:00:00 30/07/1987,84.632,26.209,,,
09:00:00 31/07/1987,84.552,25.568,,,
09:00:00 01/08/1987,84.436,24.637,,,
09:00:00 02/08/1987,84.243,23.314,,,
09:00:00 03/08/1987,84.531,25.485,,,
09:00:00 04/08/1987,85.083,29.513,,,
09:00:00 05/08/1987,85.422,31.933,,,
09:00:00 06/08/1987,85.511,32.637,,,
09:00:00 07/08/1987,85.56,33.069,,,
09:00:00 08/08/1987,85.634,33.631,,,
09:00:00 09/08/1987,85.704,34.162,,,
09:00:00 10/08/1987,85.767,34.645,,,
09:00:00 11/08/1987,85.809,34.966,,,
09:00:00 12/08/1987,85.869,35.431,,,
09:00:00 13/08/1987,85.881,35.426,,,
09:00:00 14/08/1987,85.794,34.797,,,
09:00:00 15/08/1987,85.632,33.617,,,
09:00:00 16/08/1987,85.496,32.584,,,
09:00:00 17/08/1987,85.286,30.995,,,
09:00:00 18/08/1987,85.056,29.263,,,
09:00:00 19/08/1987,84.931,28.344,,,
09:00:00 20/08/1987,84.894,28.093,,,
09:00:00 21/08/1987,84.896,28.108,,,
09:00:00 22/08/1987,84.912,28.215,,,
09:00:00 23/08/1987,84.901,28.141,,,
09:00:00 24/08/1987,84.827,27.614,,,
09:00:00 25/08/1987,84.683,26.577,,,
09:00:00 26/08/1987,84.482,25.0,,,
09:00:00 27/08/1987,84.207,23.069,,,
09:00:00 28/08/1987,83.972,21.541,,,
09:00:00 29/08/1987,83.85,20.757,,,
09:00:00 30/08/1987,83.783,20.323,,,
09:00:00 31/08/1987,83.723,19.941,,,
09:00:00 01/09/1987,83.694,19.753,,,
09:00:00 02/09/1987,83.69,19.727,,,
09:00:00 03/09/1987,83.684,19.687,,,
09:00:00 04/09/1987,83.667,19.579,,,
09:00:00 05/09/1987,83.629,19.325,,,
09:00:00 06/09/1987,83.592,19.084,,,
09:00:00 07/09/1987,83.594,19.101,,,
09:00:00 08/09/1987,83.75,20.108,,,
09:00:00 09/09/1987,83.984,21.619,,,
09:00:00 10/09/1987,84.226,23.177,,,
09:00:00 11/09/1987,84.467,24.913,,,
09:00:00 12/09/1987,84.976,28.704,,,
09:00:00 13/09/1987,85.265,30.839,,,
09:00:00 14/09/1987,85.267,30.856,,,
09:00:00 15/09/1987,85.2,30.35,,,
09:00:00 16/09/1987,85.31,31.175,,,
09:00:00 17/09/1987,85.537,32.899,,,
09:00:00 18/09/1987,85.751,34.527,,,
09:00:00 19/09/1987,85.966,36.164,,,
09:00:00 20/09/1987,86.032,36.666,,,
09:00:00 21/09/1987,86.062,36.897,,,
09:00:00 22/09/1987,85.985,36.326,,,
09:00:00 23/09/1987,85.951,36.063,,,
09:00:00 24/09/1987,86.013,36.53,,,
09:00:00 25/09/1987,86.058,36.873,,,
09:00:00 26/09/1987,86.064,36.917,,,
09:00:00 27/09/1987,86.085,37.077,,,
09:00:00 28/09/1987,86.113,37.291,,,
09:00:00 29/09/1987,86.132,37.444,,,
09:00:00 30/09/1987,86.128,37.41,,,
09:00:00 01/10/1987,86.132,37.445,,,
09:00:00 02/10/1987,86.139,37.498,,,
09:00:00 03/10/1987,86.072,36.981,,,
09:00:00 04/10/1987,86.036,36.704,,,
09:00:00 05/10/1987,86.058,36.873,,,
09:00:00 06/10/1987,86.064,36.916,,,
09:00:00 07/10/1987,86.066,36.932,,,
09:00:00 08/10/1987,86.064,36.915,,,
09:00:00 09/10/1987,86.06,36.885,,,
09:00:00 10/10/1987,86.054,36.838,,,
09:00:00 11/10/1987,86.044,36.764,,,
09:00:00 12/10/1987,86.059,36.874,,,
09:00:00 13/10/1987,86.07,36.962,,,
09:00:00 14/10/1987,86.07,36.961,,,
09:00:00 15/10/1987,86.064,36.915,,,
09:00:00 16/10/1987,86.054,36.839,,,
09:00:00 17/10/1987,86.05,36.811,,,
09:00:00 18/10/1987,86.056,36.859,,,
09:00:00 19/10/1987,86.085,37.074,,,
09:00:00 20/10/1987,86.087,37.096,,,
09:00:00 21/10/1987,86.062,36.9,,,
09:00:00 22/10/1987,86.075,36.998,,,
09:00:00 23/10/1987,86.078,37.02,,,
09:00:00 24/10/1987,,36.877,,,
09:00:00 25/10/1987,,,,,
09:00:00 26/10/1987,,36.957,,,
09:00:00 27/10/1987,86.054,36.838,,,
09:00:00 28/10/1987,86.04,36.732,,,
09:00:00 29/10/1987,86.029,36.794,,,
09:00:00 30/10/1987,86.047,36.909,,,
09:00:00 31/10/1987,86.065,36.921,,,
09:00:00 01/11/1987,86.055,36.845,,,
09:00:00 02/11/1987,86.05,36.81,,,
09:00:00 03/11/1987,86.045,36.768,,,
09:00:00 04/11/1987,86.056,36.856,,,
09:00:00 05/11/1987,86.065,36.921,,,
09:00:00 06/11/1987,86.049,36.803,,,
09:00:00 07/11/1987,86.062,36.898,,,
09:00:00 08/11/1987,86.08,37.039,,,
09:00:00 09/11/1987,86.075,37.018,,,
09:00:00 10/11/1987,86.07,36.98,,,
09:00:00 11/11/1987,86.07,36.962,,,
09:00:00 12/11/1987,86.075,37.004,,,
09:00:00 13/11/1987,86.069,36.956,,,
09:00:00 14/11/1987,86.06,36.886,,,
09:00:00 15/11/1987,86.06,36.886,,,
09:00:00 16/11/1987,86.065,36.927,,,
09:00:00 17/11/1987,86.07,36.962,,,
09:00:00 18/11/1987,86.07,36.962,,,
09:00:00 19/11/1987,86.059,36.88,,,
09:00:00 20/11/1987,86.055,36.851,,,
09:00:00 21/11/1987,86.06,36.886,,,
09:00:00 22/11/1987,86.06,36.886,,,
09:00:00 23/11/1987,86.065,36.927,,,
09:00:00 24/11/1987,86.075,37.003,,,
09:00:00 25/11/1987,86.064,36.915,,,
09:00:00 26/11/1987,86.055,36.851,,,
09:00:00 27/11/1987,86.06,36.886,,,
09:00:00 28/11/1987,86.065,36.927,,,
09:00:00 29/11/1987,86.07,36.962,,,
09:00:00 30/11/1987,86.075,37.004,,,
09:00:00 01/12/1987,86.085,37.08,,,
09:00:00 02/12/1987,86.074,36.992,,,
09:00:00 03/12/1987,86.06,36.886,,,
09:00:00 04/12/1987,86.06,36.886,,,
09:00:00 05/12/1987,86.049,36.802,,,
09:00:00 06/12/1987,86.008,36.484,,,
09:00:00 07/12/1987,85.991,36.356,,,
09:00:00 08/12/1987,86.011,36.504,,,
09:00:00 09/12/1987,86.031,36.658,,,
09:00:00 10/12/1987,86.04,36.732,,,
09:00:00 11/12/1987,86.051,36.815,,,
09:00:00 12/12/1987,86.049,36.803,,,
09:00:00 13/12/1987,86.04,36.732,,,
09:00:00 14/12/1987,86.051,36.815,,,
09:00:00 15/12/1987,86.055,36.845,,,
09:00:00 16/12/1987,86.045,36.768,,,
09:00:00 17/12/1987,86.045,36.774,,,
09:00:00 18/12/1987,86.045,36.768,,,
09:00:00 19/12/1987,86.035,36.69,,,
09:00:00 20/12/1987,86.041,36.739,,,
09:00:00 21/12/1987,86.055,36.851,,,
09:00:00 22/12/1987,86.082,37.052,,,
09:00:00 23/12/1987,86.105,37.235,,,
09:00:00 24/12/1987,86.11,37.27,,,
09:00:00 25/12/1987,86.11,37.27,,,
09:00:00 26/12/1987,86.11,37.27,,,
09:00:00 27/12/1987,86.11,37.27,,,
09:00:00 28/12/1987,86.115,37.312,,,
09:00:00 29/12/1987,86.082,37.057,,,
09:00:00 30/12/1987,86.045,36.768,,,
09:00:00 31/12/1987,86.051,36.815,,,
09:00:00 01/01/1988,86.071,36.968,,,
09:00:00 02/01/1988,86.053,36.831,,,
09:00:00 03/01/1988,86.035,36.697,,,
09:00:00 04/01/1988,86.051,36.816,,,
09:00:00 05/01/1988,86.098,37.178,,,
09:00:00 06/01/1988,86.076,37.01,,,
09:00:00 07/01/1988,86.062,36.905,,,
09:00:00 08/01/1988,86.117,37.326,,,
09:00:00 09/01/1988,86.14,37.505,,,
09:00:00 10/01/1988,86.14,37.505,,,
09:00:00 11/01/1988,86.129,37.421,,,
09:00:00 12/01/1988,86.12,37.349,,,
09:00:00 13/01/1988,86.131,37.433,,,
09:00:00 14/01/1988,86.151,37.589,,,
09:00:00 15/01/1988,86.149,37.576,,,
09:00:00 16/01/1988,86.091,37.129,,,
09:00:00 17/01/1988,86.045,36.768,,,
09:00:00 18/01/1988,86.04,36.732,,,
09:00:00 19/01/1988,86.067,36.94,,,
09:00:00 20/01/1988,86.09,37.116,,,
09:00:00 21/01/1988,86.079,37.033,,,
09:00:00 22/01/1988,86.065,36.921,,,
09:00:00 23/01/1988,86.055,36.845,,,
09:00:00 24/01/1988,86.05,36.81,,,
09:00:00 25/01/1988,86.055,36.851,,,
09:00:00 26/01/1988,86.071,36.969,,,
09:00:00 27/01/1988,86.085,37.081,,,
09:00:00 28/01/1988,86.09,37.116,,,
09:00:00 29/01/1988,86.09,37.116,,,
09:00:00 30/01/1988,86.09,37.116,,,
09:00:00 31/01/1988,86.112,37.284,,,
09:00:00 01/02/1988,86.146,37.553,,,
09:00:00 02/02/1988,86.16,37.66,,,
09:00:00 03/02/1988,86.165,37.702,,,
09:00:00 04/02/1988,86.175,37.78,,,
09:00:00 05/02/1988,86.175,37.774,,,
09:00:00 06/02/1988,86.165,37.696,,,
09:00:00 07/02/1988,86.16,37.66,,,
09:00:00 08/02/1988,86.16,37.66,,,
09:00:00 09/02/1988,86.16,37.66,,,
09:00:00 10/02/1988,86.16,37.66,,,
09:00:00 11/02/1988,86.165,37.702,,,
09:00:00 12/02/1988,86.17,37.738,,,
09:00:00 13/02/1988,86.17,37.738,,,
09:00:00 14/02/1988,86.17,37.738,,,
09:00:00 15/02/1988,86.17,37.738,,,
09:00:00 16/02/1988,86.165,37.696,,,
09:00:00 17/02/1988,86.165,37.702,,,
09:00:00 18/02/1988,86.17,37.738,,,
09:00:00 19/02/1988,86.165,37.696,,,
09:00:00 20/02/1988,86.16,37.66,,,
09:00:00 21/02/1988,86.16,37.66,,,
09:00:00 22/02/1988,86.165,37.702,,,
09:00:00 23/02/1988,86.17,37.738,,,
09:00:00 24/02/1988,86.175,37.78,,,
09:00:00 25/02/1988,86.18,37.816,,,
09:00:00 26/02/1988,86.175,37.774,,,
09:00:00 27/02/1988,86.17,37.738,,,
09:00:00 28/02/1988,86.165,37.696,,,
09:00:00 29/02/1988,86.16,37.66,,,
09:00:00 01/03/1988,86.16,37.66,,,
09:00:00 02/03/1988,86.165,37.702,,,
09:00:00 03/03/1988,86.181,37.822,,,
09:00:00 04/03/1988,86.174,37.767,,,
09:00:00 05/03/1988,86.16,37.66,,,
09:00:00 06/03/1988,86.16,37.66,,,
09:00:00 07/03/1988,86.165,37.702,,,
09:00:00 08/03/1988,86.175,37.78,,,
09:00:00 09/03/1988,86.185,37.858,,,
09:00:00 10/03/1988,86.185,37.852,,,
09:00:00 11/03/1988,86.191,37.9,,,
09:00:00 12/03/1988,86.195,37.93,,,
09:00:00 13/03/1988,86.179,37.81,,,
09:00:00 14/03/1988,86.17,37.738,,,
09:00:00 15/03/1988,86.175,37.78,,,
09:00:00 16/03/1988,86.175,37.774,,,
09:00:00 17/03/1988,86.175,37.78,,,
09:00:00 18/03/1988,86.18,37.816,,,
09:00:00 19/03/1988,86.175,37.774,,,
09:00:00 20/03/1988,86.158,37.648,,,
09:00:00 21/03/1988,86.156,37.629,,,
09:00:00 22/03/1988,86.148,37.567,,,
09:00:00 23/03/1988,86.165,37.698,,,
09:00:00 24/03/1988,86.192,37.912,,,
09:00:00 25/03/1988,86.2,37.971,,,
09:00:00 26/03/1988,86.194,37.924,,,
09:00:00 27/03/1988,86.19,37.894,,,
09:00:00 28/03/1988,86.19,37.892,,,
09:00:00 29/03/1988,86.165,37.702,,,
09:00:00 30/03/1988,86.15,37.584,,,
09:00:00 31/03/1988,,37.626,,,
09:00:00 01/04/1988,,,,,
09:00:00 02/04/1988,,37.738,,,
09:00:00 03/04/1988,86.17,37.739,,,
09:00:00 04/04/1988,86.176,37.787,,,
09:00:00 05/04/1988,86.186,37.864,,,
09:00:00 06/04/1988,86.19,37.894,,,
09:00:00 07/04/1988,86.19,37.893,,,
09:00:00 08/04/1988,86.183,37.839,,,
09:00:00 09/04/1988,86.106,37.242,,,
09:00:00 10/04/1988,86.06,36.885,,,
09:00:00 11/04/1988,86.054,36.839,,,
09:00:00 12/04/1988,86.05,36.812,,,
09:00:00 13/04/1988,86.068,36.948,,,
09:00:00 14/04/1988,86.043,36.749,,,
09:00:00 15/04/1988,86.014,36.526,,,
09:00:00 16/04/1988,85.998,36.409,,,
09:00:00 17/04/1988,86.002,36.443,,,
09:00:00 18/04/1988,86.01,36.499,,,
09:00:00 19/04/1988,86.004,36.457,,,
09:00:00 20/04/1988,86.037,36.708,,,
09:00:00 21/04/1988,86.048,36.792,,,
09:00:00 22/04/1988,86.046,36.78,,,
09:00:00 23/04/1988,86.044,36.761,,,
09:00:00 24/04/1988,86.034,36.685,,,
09:00:00 25/04/1988,86.036,36.703,,,
09:00:00 26/04/1988,86.04,36.733,,,
09:00:00 27/04/1988,86.053,36.831,,,
09:00:00 28/04/1988,86.103,37.221,,,
09:00:00 29/04/1988,86.136,37.477,,,
09:00:00 30/04/1988,86.158,37.648,,,
09:00:00 01/05/1988,86.164,37.687,,,
09:00:00 02/05/1988,86.135,37.467,,,
09:00:00 03/05/1988,86.108,37.252,,,
09:00:00 04/05/1988,86.088,37.097,,,
09:00:00 05/05/1988,86.068,36.944,,,
09:00:00 06/05/1988,86.054,36.84,,,
09:00:00 07/05/1988,86.056,36.856,,,
09:00:00 08/05/1988,86.054,36.839,,,
09:00:00 09/05/1988,86.05,36.809,,,
09:00:00 10/05/1988,86.038,36.714,,,
09:00:00 11/05/1988,86.03,36.655,,,
09:00:00 12/05/1988,86.03,36.654,,,
09:00:00 13/05/1988,86.024,36.606,,,
09:00:00 14/05/1988,86.051,36.811,,,
09:00:00 15/05/1988,86.064,36.917,,,
09:00:00 16/05/1988,86.079,37.028,,,
09:00:00 17/05/1988,86.089,37.111,,,
09:00:00 18/05/1988,86.034,36.689,,,
09:00:00 19/05/1988,85.993,36.372,,,
09:00:00 20/05/1988,85.92,35.821,,,
09:00:00 21/05/1988,85.73,34.364,,,
09:00:00 22/05/1988,85.461,32.323,,,
09:00:00 23/05/1988,85.362,31.57,,,
09:00:00 24/05/1988,85.345,31.442,,,
09:00:00 25/05/1988,85.3,31.103,,,
09:00:00 26/05/1988,85.321,31.264,,,
09:00:00 27/05/1988,85.193,30.292,,,
09:00:00 28/05/1988,84.908,28.207,,,
09:00:00 29/05/1988,,26.84,,,
09:00:00 30/05/1988,,,,,
09:00:00 31/05/1988,,25.926,,,
09:00:00 01/06/1988,84.551,25.557,,,
09:00:00 02/06/1988,84.514,25.255,,,
09:00:00 03/06/1988,84.541,25.475,,,
09:00:00 04/06/1988,84.554,25.585,,,
09:00:00 05/06/1988,84.556,25.6,,,
09:00:00 06/06/1988,84.53,25.385,,,
09:00:00 07/06/1988,84.566,25.685,,,
09:00:00 08/06/1988,84.638,26.261,,,
09:00:00 09/06/1988,84.732,26.948,,,
09:00:00 10/06/1988,84.617,26.05,,,
09:00:00 11/06/1988,84.349,24.074,,,
09:00:00 12/06/1988,84.377,24.243,,,
09:00:00 13/06/1988,84.57,25.708,,,
09:00:00 14/06/1988,84.555,25.582,,,
09:00:00 15/06/1988,84.574,25.743,,,
09:00:00 16/06/1988,84.594,25.912,,,
09:00:00 17/06/1988,84.461,24.841,,,
09:00:00 18/06/1988,84.272,23.514,,,
09:00:00 19/06/1988,84.138,22.63,,,
09:00:00 20/06/1988,84.081,22.248,,,
09:00:00 21/06/1988,84.07,22.174,,,
09:00:00 22/06/1988,84.07,22.174,,,
09:00:00 23/06/1988,84.064,22.137,,,
09:00:00 24/06/1988,84.091,22.312,,,
09:00:00 25/06/1988,84.16,22.781,,,
09:00:00 26/06/1988,84.252,23.358,,,
09:00:00 27/06/1988,84.333,23.87,,,
09:00:00 28/06/1988,84.347,23.961,,,
09:00:00 29/06/1988,84.264,23.447,,,
09:00:00 30/06/1988,84.082,22.269,,,
09:00:00 01/07/1988,83.857,20.801,,,
09:00:00 02/07/1988,83.652,19.477,,,
09:00:00 03/07/1988,83.511,18.579,,,
09:00:00 04/07/1988,83.408,17.938,,,
09:00:00 05/07/1988,83.345,17.557,,,
09:00:00 06/07/1988,83.317,17.394,,,
09:00:00 07/07/1988,83.291,17.239,,,
09:00:00 08/07/1988,83.267,17.097,,,
09:00:00 09/07/1988,83.235,16.907,,,
09:00:00 10/07/1988,83.208,16.743,,,
09:00:00 11/07/1988,83.187,16.615,,,
09:00:00 12/07/1988,83.118,16.158,,,
09:00:00 13/07/1988,83.087,15.956,,,
09:00:00 14/07/1988,83.178,16.541,,,
09:00:00 15/07/1988,83.336,17.502,,,
09:00:00 16/07/1988,83.475,18.351,,,
09:00:00 17/07/1988,83.594,19.106,,,
09:00:00 18/07/1988,83.64,19.396,,,
09:00:00 19/07/1988,83.609,19.2,,,
09:00:00 20/07/1988,83.608,19.192,,,
09:00:00 21/07/1988,83.602,19.152,,,
09:00:00 22/07/1988,83.643,19.418,,,
09:00:00 23/07/1988,83.932,21.287,,,
09:00:00 24/07/1988,84.333,23.969,,,
09:00:00 25/07/1988,84.648,26.287,,,
09:00:00 26/07/1988,84.831,27.656,,,
09:00:00 27/07/1988,84.955,28.515,,,
09:00:00 28/07/1988,85.038,29.115,,,
09:00:00 29/07/1988,85.123,29.761,,,
09:00:00 30/07/1988,85.248,30.708,,,
09:00:00 31/07/1988,85.393,31.808,,,
09:00:00 01/08/1988,85.506,32.659,,,
09:00:00 02/08/1988,85.565,33.106,,,
09:00:00 03/08/1988,85.579,33.218,,,
09:00:00 04/08/1988,85.536,32.888,,,
09:00:00 05/08/1988,85.447,32.209,,,
09:00:00 06/08/1988,85.279,30.948,,,
09:00:00 07/08/1988,85.107,29.642,,,
09:00:00 08/08/1988,85.006,28.885,,,
09:00:00 09/08/1988,84.943,28.43,,,
09:00:00 10/08/1988,84.908,28.185,,,
09:00:00 11/08/1988,84.919,28.263,,,
09:00:00 12/08/1988,84.974,28.65,,,
09:00:00 13/08/1988,85.081,29.445,,,
09:00:00 14/08/1988,85.204,30.381,,,
09:00:00 15/08/1988,85.274,30.909,,,
09:00:00 16/08/1988,85.246,30.577,,,
09:00:00 17/08/1988,85.144,29.849,,,
09:00:00 18/08/1988,84.98,28.712,,,
09:00:00 19/08/1988,84.713,26.771,,,
09:00:00 20/08/1988,84.596,25.934,,,
09:00:00 21/08/1988,84.587,25.862,,,
09:00:00 22/08/1988,84.555,25.597,,,
09:00:00 23/08/1988,84.545,25.505,,,
09:00:00 24/08/1988,84.921,28.278,,,
09:00:00 25/08/1988,85.48,32.468,,,
09:00:00 26/08/1988,85.915,35.777,,,
09:00:00 27/08/1988,86.085,37.075,,,
09:00:00 28/08/1988,86.1,37.192,,,
09:00:00 29/08/1988,86.094,37.143,,,
09:00:00 30/08/1988,86.065,36.924,,,
09:00:00 31/08/1988,86.019,36.571,,,
09:00:00 01/09/1988,85.988,36.334,,,
09:00:00 02/09/1988,85.999,36.417,,,
09:00:00 03/09/1988,86.041,36.74,,,
09:00:00 04/09/1988,86.079,37.029,,,
09:00:00 05/09/1988,86.096,37.161,,,
09:00:00 06/09/1988,86.069,36.956,,,
09:00:00 07/09/1988,86.044,36.763,,,
09:00:00 08/09/1988,86.053,36.828,,,
09:00:00 09/09/1988,86.072,36.979,,,
09:00:00 10/09/1988,86.068,36.946,,,
09:00:00 11/09/1988,86.072,36.979,,,
09:00:00 12/09/1988,86.067,36.937,,,
09:00:00 13/09/1988,85.985,36.314,,,
09:00:00 14/09/1988,85.852,35.298,,,
09:00:00 15/09/1988,85.701,34.138,,,
09:00:00 16/09/1988,85.585,33.261,,,
09:00:00 17/09/1988,85.6,33.372,,,
09:00:00 18/09/1988,85.661,33.838,,,
09:00:00 19/09/1988,85.692,34.076,,,
09:00:00 20/09/1988,85.706,34.182,,,
09:00:00 21/09/1988,85.716,34.255,,,
09:00:00 22/09/1988,85.695,34.095,,,
09:00:00 23/09/1988,85.642,33.695,,,
09:00:00 24/09/1988,85.557,33.046,,,
09:00:00 25/09/1988,85.401,31.869,,,
09:00:00 26/09/1988,85.217,30.479,,,
09:00:00 27/09/1988,,29.176,,,
09:00:00 28/09/1988,,,,,
09:00:00 29/09/1988,,29.314,,,
09:00:00 30/09/1988,85.63,33.61,,,
09:00:00 01/10/1988,86.045,36.764,,,
09:00:00 02/10/1988,86.054,36.84,,,
09:00:00 03/10/1988,86.063,36.905,,,
09:00:00 04/10/1988,86.082,37.055,,,
09:00:00 05/10/1988,86.071,36.974,,,
09:00:00 06/10/1988,86.06,36.882,,,
09:00:00 07/10/1988,86.023,36.604,,,
09:00:00 08/10/1988,86.025,36.614,,,
09:00:00 09/10/1988,86.04,36.732,,,
09:00:00 10/10/1988,86.04,36.735,,,
09:00:00 11/10/1988,86.071,36.968,,,
09:00:00 12/10/1988,86.084,37.068,,,
09:00:00 13/10/1988,86.074,36.991,,,
09:00:00 14/10/1988,86.064,36.917,,,
09:00:00 15/10/1988,86.079,37.028,,,
09:00:00 16/10/1988,86.09,37.116,,,
09:00:00 17/10/1988,86.09,37.117,,,
09:00:00 18/10/1988,86.096,37.162,,,
09:00:00 19/10/1988,86.081,37.047,,,
09:00:00 20/10/1988,86.039,36.72,,,
09:00:00 21/10/1988,86.02,36.569,,,
09:00:00 22/10/1988,86.014,36.527,,,
09:00:00 23/10/1988,86.016,36.544,,,
09:00:00 24/10/1988,86.032,36.67,,,
09:00:00 25/10/1988,86.04,36.732,,,
09:00:00 26/10/1988,86.04,36.733,,,
09:00:00 27/10/1988,86.046,36.78,,,
09:00:00 28/10/1988,86.05,36.81,,,
09:00:00 29/10/1988,,36.81,,,
09:00:00 30/10/1988,,36.81,,,
09:00:00 31/10/1988,86.05,36.81,,,
09:00:00 01/11/1988,86.055,36.851,,,
09:00:00 02/11/1988,86.055,36.845,,,
09:00:00 03/11/1988,86.045,36.768,,,
09:00:00 04/11/1988,86.056,36.856,,,
09:00:00 05/11/1988,86.075,37.003,,,
09:00:00 06/11/1988,86.015,36.544,,,
09:00:00 07/11/1988,85.971,36.205,,,
09:00:00 08/11/1988,85.985,36.315,,,
09:00:00 09/11/1988,85.995,36.391,,,
09:00:00 10/11/1988,86.005,36.466,,,
09:00:00 11/11/1988,86.037,36.709,,,
09:00:00 12/11/1988,86.049,36.803,,,
09:00:00 13/11/1988,86.062,36.898,,,
09:00:00 14/11/1988,86.058,36.873,,,
09:00:00 15/11/1988,86.035,36.691,,,
09:00:00 16/11/1988,86.079,37.03,,,
09:00:00 17/11/1988,86.12,37.349,,,
09:00:00 18/11/1988,86.109,37.265,,,
09:00:00 19/11/1988,86.105,37.235,,,
09:00:00 20/11/1988,86.11,37.27,,,
09:00:00 21/11/1988,86.11,37.27,,,
09:00:00 22/11/1988,86.115,37.313,,,
09:00:00 23/11/1988,86.142,37.517,,,
09:00:00 24/11/1988,86.106,37.241,,,
09:00:00 25/11/1988,86.06,36.886,,,
09:00:00 26/11/1988,86.022,36.596,,,
09:00:00 27/11/1988,85.941,35.984,,,
09:00:00 28/11/1988,85.922,35.834,,,
09:00:00 29/11/1988,85.875,35.474,,,
09:00:00 30/11/1988,85.842,35.218,,,
09:00:00 01/12/1988,85.849,35.278,,,
09:00:00 02/12/1988,85.921,35.824,,,
09:00:00 03/12/1988,85.985,36.309,,,
09:00:00 04/12/1988,85.98,36.274,,,
09:00:00 05/12/1988,85.98,36.274,,,
09:00:00 06/12/1988,85.991,36.356,,,
09:00:00 07/12/1988,86.0,36.425,,,
09:00:00 08/12/1988,86.011,36.503,,,
09:00:00 09/12/1988,85.982,36.288,,,
09:00:00 10/12/1988,85.95,36.049,,,
09:00:00 11/12/1988,85.977,36.253,,,
09:00:00 12/12/1988,86.022,36.59,,,
09:00:00 13/12/1988,85.98,36.281,,,
09:00:00 14/12/1988,85.892,35.608,,,
09:00:00 15/12/1988,85.909,35.733,,,
09:00:00 16/12/1988,85.972,36.212,,,
09:00:00 17/12/1988,86.017,36.557,,,
09:00:00 18/12/1988,86.045,36.774,,,
09:00:00 19/12/1988,86.023,36.602,,,
09:00:00 20/12/1988,85.978,36.262,,,
09:00:00 21/12/1988,85.96,36.124,,,
09:00:00 22/12/1988,85.982,36.287,,,
09:00:00 23/12/1988,86.006,36.466,,,
09:00:00 24/12/1988,86.07,36.959,,,
09:00:00 25/12/1988,86.142,37.517,,,
09:00:00 26/12/1988,86.144,37.534,,,
09:00:00 27/12/1988,86.119,37.342,,,
09:00:00 28/12/1988,86.099,37.187,,,
09:00:00 29/12/1988,86.074,36.991,,,
09:00:00 30/12/1988,86.033,36.677,,,
09:00:00 31/12/1988,85.994,36.378,,,
09:00:00 01/01/1989,86.002,36.434,,,
09:00:00 02/01/1989,86.025,36.616,,,
09:00:00 03/01/1989,86.019,36.572,,,
09:00:00 04/01/1989,86.042,36.75,,,
09:00:00 05/01/1989,86.059,36.88,,,
09:00:00 06/01/1989,86.045,36.768,,,
09:00:00 07/01/1989,86.035,36.69,,,
09:00:00 08/01/1989,86.041,36.739,,,
09:00:00 09/01/1989,86.05,36.81,,,
09:00:00 10/01/1989,86.055,36.851,,,
09:00:00 11/01/1989,86.044,36.761,,,
09:00:00 12/01/1989,86.046,36.78,,,
09:00:00 13/01/1989,86.055,36.845,,,
09:00:00 14/01/1989,86.05,36.81,,,
09:00:00 15/01/1989,86.055,36.851,,,
09:00:00 16/01/1989,86.06,36.886,,,
09:00:00 17/01/1989,86.055,36.845,,,
09:00:00 18/01/1989,86.05,36.81,,,
09:00:00 19/01/1989,86.061,36.892,,,
09:00:00 20/01/1989,86.07,36.962,,,
09:00:00 21/01/1989,86.075,37.004,,,
09:00:00 22/01/1989,86.075,36.997,,,
09:00:00 23/01/1989,86.075,37.003,,,
09:00:00 24/01/1989,86.064,36.915,,,
09:00:00 25/01/1989,86.05,36.81,,,
09:00:00 26/01/1989,86.045,36.768,,,
09:00:00 27/01/1989,86.045,36.774,,,
09:00:00 28/01/1989,86.05,36.81,,,
09:00:00 29/01/1989,86.045,36.768,,,
09:00:00 30/01/1989,86.04,36.732,,,
09:00:00 31/01/1989,86.062,36.898,,,
09:00:00 01/02/1989,86.102,37.207,,,
09:00:00 02/02/1989,86.131,37.433,,,
09:00:00 03/02/1989,86.14,37.505,,,
09:00:00 04/02/1989,86.135,37.463,,,
09:00:00 05/02/1989,86.141,37.511,,,
09:00:00 06/02/1989,86.155,37.625,,,
09:00:00 07/02/1989,86.16,37.66,,,
09:00:00 08/02/1989,86.16,37.66,,,
09:00:00 09/02/1989,86.16,37.66,,,
09:00:00 10/02/1989,86.16,37.66,,,
09:00:00 11/02/1989,86.16,37.66,,,
09:00:00 12/02/1989,86.16,37.66,,,
09:00:00 13/02/1989,86.165,37.702,,,
09:00:00 14/02/1989,86.159,37.654,,,
09:00:00 15/02/1989,86.155,37.625,,,
09:00:00 16/02/1989,86.165,37.702,,,
09:00:00 17/02/1989,86.17,37.738,,,
09:00:00 18/02/1989,86.165,37.696,,,
09:00:00 19/02/1989,86.155,37.618,,,
09:00:00 20/02/1989,86.155,37.625,,,
09:00:00 21/02/1989,86.16,37.66,,,
09:00:00 22/02/1989,86.16,37.66,,,
09:00:00 23/02/1989,86.155,37.618,,,
09:00:00 24/02/1989,86.155,37.625,,,
09:00:00 25/02/1989,86.16,37.66,,,
09:00:00 26/02/1989,86.155,37.618,,,
09:00:00 27/02/1989,86.155,37.625,,,
09:00:00 28/02/1989,86.16,37.66,,,
09:00:00 01/03/1989,86.165,37.702,,,
09:00:00 02/03/1989,86.165,37.696,,,
09:00:00 03/03/1989,86.165,37.702,,,
09:00:00 04/03/1989,86.165,37.696,,,
09:00:00 05/03/1989,86.16,37.66,,,
09:00:00 06/03/1989,86.165,37.702,,,
09:00:00 07/03/1989,86.17,37.738,,,
09:00:00 08/03/1989,86.17,37.738,,,
09:00:00 09/03/1989,86.175,37.78,,,
09:00:00 10/03/1989,86.18,37.816,,,
09:00:00 11/03/1989,86.175,37.774,,,
09:00:00 12/03/1989,86.175,37.78,,,
09:00:00 13/03/1989,86.175,37.774,,,
09:00:00 14/03/1989,86.181,37.822,,,
09:00:00 15/03/1989,86.163,37.684,,,
09:00:00 16/03/1989,86.151,37.589,,,
09:00:00 17/03/1989,86.165,37.702,,,
09:00:00 18/03/1989,86.165,37.696,,,
09:00:00 19/03/1989,86.154,37.615,,,
09:00:00 20/03/1989,86.15,37.585,,,
09:00:00 21/03/1989,86.168,37.724,,,
09:00:00 22/03/1989,86.155,37.625,,,
09:00:00 23/03/1989,86.145,37.544,,,
09:00:00 24/03/1989,86.051,36.821,,,
09:00:00 25/03/1989,85.978,36.262,,,